Weather in Tereben

Russia / Kaluga Oblast     53°25′43″N   35°15′54″E
temp.,
°C
wind,
m/s
gust,
m/s
humid.,
%
clouds,
%
prec.,
mm/h
press.,
hPa
HPBL,
m
7 august, sun
sun700:00+19sse22785 0.0 101825
03:00+18sse22785 0.0 101820
06:00+17sse23755 0.0 101860
09:00+24sse245117 0.0 1018339
12:00+29s233566 0.0 10171976
15:00+29ssw343297 0.0 10162755
18:00+24wnw3559100 0.1 1017176
21:00+19n4891100 0.3 1018321
8 august, mon
mon800:00+17nne1396100 0.4 1018102
03:00+16n239980 0.4 101988
06:00+16ne2496100 0.1 1020110
09:00+20n118325 0.1 1020305
12:00+25nne23597 0.0 1020975
15:00+23nnw337657 1.5 1019363
18:00+22nw128399 5.3 101933
21:00+17nnw3799100 6.3 1020220
9 august, tue
tue900:00+15nnw2699100 0.0 1020173
03:00+15nnw119892 0.0 102032
06:00+15nnw259992 0.8 1020179
09:00+17nnw2492100 1.1 1021397
12:00+19n3483100 0.3 1021671
15:00+21n3469100 0.3 10211053
18:00+21nne2469100 0.1 1020758
21:00+16ne2392100 0.1 102160
10 august, wed
wed1000:00+17nne2584100 0.0 1021116
03:00+15n1189100 0.1 102129
06:00+14nne2487100 0.0 102191
09:00+17nne2370100 0.0 1021358
12:00+22n344985 0.0 10211466
15:00+23n444338 0.0 10201979
18:00+22n3553100 0.0 10211022
21:00+15n3107365 0.0 1022267
11 august, thu
thu1100:00+12nne2988100 0.0 1023199
03:00+11nne28949 0.0 1024159
06:00+10nne28950 0.0 1025202
09:00+17nne47650 0.0 1025633
12:00+22ne45470 0.0 10241375
15:00+23ne45420 0.0 10231734
18:00+22ne34520 0.0 1023841
21:00+15nne22800 0.0 102441